User: anonymous   Login
Location: Unspecified
(0.0000°N, 0.0000°E)
Time: 17:38:02
(UTC+02:00)
Language:

Cosmos 1515 Rocket - Orbit

View from above orbital plane
View from above orbital plane
View from above satellite
View from above satellite

Ground track
Ground track

The orbit data is extracted from the following two-line orbital elements,

1 14552U 83122B   15183.55777240  .00000155  00000-0  15983-4 0  9999
2 14552 082.5234 026.4846 0017358 004.0135 356.1216 14.83201039703094
Epoch (UTC): 02 July 2015 13:23:11
Eccentricity: 0.0017358
inclination: 82.5234°
perigee height: 607 km
apogee height: 631 km
right ascension of ascending node: 26.4846°
argument of perigee: 4.0135°
revolutions per day: 14.83201039
mean anomaly at epoch: 356.1216°
orbit number at epoch: 70309

The dashed part of the orbit path shows where the satellite is in the earth's shadow,  

DLR